Vorticity
4 4 6 6 7 7 9 11 14 17 10 7 7 8 8 12 13 11 12 10 14 8 9 13 10 1 3 3 16 11 22 5 7 7 17 3 14 6 -5 0 23 -25 49 -8 5 21 2
4 5 5 7 7 8 10 11 16 16 9 5 8 10 9 8 11 9 11 12 13 10 10 14 14 16 4 7 15 34 -3 44 7 16 2 -7 10 -22 21 33 -3 26 -5 16 2 -4 9
5 5 6 8 7 8 11 13 18 13 10 7 9 10 9 11 8 9 13 12 13 11 11 12 10 10 8 8 3 32 -46 32 13 -4 -3 3 13 -15 28 18 14 6 -14 7 9 -2 15
6 5 6 8 7 8 10 14 17 12 9 6 8 10 10 10 8 10 11 12 13 15 9 13 11 9 7 9 5 19 28 82 0 10 -4 10 13 -3 25 -3 4 -1 16 -1 31 1 10
6 6 7 8 7 8 10 15 18 12 10 6 6 8 9 8 12 11 10 11 16 13 9 12 11 5 5 10 7 26 27 68 13 1 20 1 -1 -9 2 5 21 -1 22 4 11 7 24
6 7 7 7 7 8 11 14 18 13 10 8 5 6 7 10 11 13 13 12 16 15 13 7 12 15 -7 6 8 22 2 50 6 15 -8 14 -3 -15 7 7 1 4 0 10 -11 14 11
6 8 7 7 7 8 11 13 18 13 10 8 6 6 7 11 11 9 18 15 16 7 17 10 15 7 11 14 19 34 28 25 17 0 2 28 5 -1 3 1 7 15 -2 14 6 36 -4
8 8 7 7 7 8 11 12 18 15 10 6 4 4 7 11 12 10 10 12 23 7 -5 -4 14 4 9 19 14 29 31 19 -6 12 5 8 16 -5 12 12 -4 18 3 24 3 17 -8
8 7 7 7 7 8 9 11 16 19 12 5 3 4 5 12 15 5 8 10 28 4 4 -9 1 9 12 21 20 23 2 19 17 16 8 -6 25 3 0 6 13 24 15 8 -4 16 1
8 7 7 7 7 7 9 11 14 17 20 6 4 4 8 8 14 18 12 13 15 17 10 -17 14 1 16 18 -1 26 29 19 -5 31 -10 5 6 10 8 13 7 8 17 12 0 4 6
8 7 7 7 7 7 8 10 13 15 19 18 4 5 7 8 11 19 21 9 18 11 9 23 12 17 29 24 25 2 24 -22 13 41 -31 22 16 10 8 7 1 8 12 8 5 5 -19
9 8 8 8 7 6 7 9 11 13 18 23 11 5 6 10 10 22 21 9 16 12 -22 2 3 7 7 18 20 4 21 -5 39 -4 -13 22 15 4 7 7 -6 20 4 8 10 13 19
9 9 8 8 7 6 7 9 10 12 19 22 18 7 4 10 3 12 22 14 -6 11 11 -3 -10 -7 14 7 12 14 10 7 7 20 -16 34 17 -6 -2 9 -11 16 1 -1 6 6 -8
9 9 9 8 8 7 6 9 9 12 19 22 19 13 5 10 2 38 37 12 15 5 2 13 8 29 7 36 16 23 14 8 13 13 13 2 20 3 32 4 0 -1 -29 -22 0 7 26
9 9 9 8 9 8 7 7 10 11 13 16 25 13 5 5 10 -3 17 13 1 10 8 4 25 9 15 29 16 0 26 5 17 16 13 18 25 9 11 19 5 20 1 -5 3 15 -6
10 9 8 8 9 9 7 7 10 10 9 17 21 22 16 8 11 11 6 21 9 9 17 6 15 8 5 12 6 6 19 28 10 14 3 23 23 -12 21 4 10 7 -4 6 8 12 12
9 9 9 9 9 9 9 7 8 10 11 11 6 23 20 26 1 9 13 17 4 19 17 16 1 12 14 8 14 13 17 -13 18 17 11 6 2 34 18 8 9 10 17 -14 -12 -17 12
8 8 9 9 9 9 9 9 8 10 15 11 19 9 25 -10 37 11 13 -3 7 10 4 23 12 9 9 7 9 3 14 13 11 11 7 4 29 10 16 -13 19 -5 14 -6 -17 9 1
6 7 9 10 10 10 9 10 9 9 10 12 17 22 15 12 24 4 9 20 -14 5 14 14 10 21 17 7 16 11 4 11 15 17 5 2 39 3 15 -6 23 25 9 9 -13 9 1
10 9 9 11 11 11 10 10 10 8 9 13 7 19 12 9 13 24 0 14 14 0 -2 -4 11 9 22 9 9 -1 19 7 15 15 7 3 19 -6 13 25 14 7 13 16 6 -9 14
10 11 7 6 11 12 12 11 10 11 8 12 13 -2 9 3 5 14 17 13 8 15 7 12 -4 4 11 8 15 5 11 17 9 17 11 -5 10 12 20 18 14 26 2 5 18 6 -15
5 11 10 4 5 8 11 11 13 11 11 10 15 6 -2 8 16 7 13 9 10 2 11 7 4 5 10 13 16 11 24 9 3 22 18 13 17 8 -3 13 10 7 27 10 2 20 8
3 6 12 5 0 3 5 9 11 12 12 11 7 14 1 2 6 14 6 7 10 13 7 10 6 6 9 18 17 16 21 17 11 14 9 14 6 16 18 6 28 12 21 18 14 7 17
2 6 8 5 8 12 7 6 10 10 12 11 10 11 8 3 6 9 9 12 16 12 8 17 9 9 16 25 11 8 13 17 24 16 13 6 26 14 25 12 5 20 20 22 1 20 11
-6 3 10 12 6 4 12 6 6 10 11 14 10 10 16 -3 9 4 8 11 14 14 18 11 11 11 11 27 0 2 2 -2 -3 -4 28 16 5 11 6 13 28 12 2 6 13 17 14
-2 -14 8 13 14 6 4 12 4 5 8 13 9 13 6 23 -4 4 4 4 8 20 21 1 26 5 7 13 10 10 8 9 -3 11 6 17 12 1 15 10 16 9 26 20 14 22 5
4 -3 -7 19 -4 7 8 8 10 5 3 6 8 14 21 17 0 10 3 6 5 10 14 27 17 16 15 11 10 10 5 14 10 7 1 15 14 10 14 11 12 -6 16 31 -3 11 16
2 6 -4 18 14 2 15 16 9 4 3 5 7 9 16 24 -1 -5 6 5 3 6 11 13 -3 20 16 17 8 10 9 7 7 0 6 8 19 12 12 13 4 -3 13 8 3 3 6
3 -2 -7 12 -1 15 4 23 3 1 12 5 5 8 3 16 28 -8 11 -1 9 1 7 12 9 15 11 17 18 8 7 6 7 10 5 20 3 7 9 -1 1 5 7 8 5 5 9
Height
3093 3086 3079 3072 3063 3053 3044 3035 3026 3017 3009 3002 2996 2989 2983 2978 2973 2970 2967 2964 2961 2959 2958 2956 2956 2957 2960 2962 2962 2961 2953 2963 2978 2989 3000 3010 3019 3029 3037 3044 3052 3057 3064 3073 3078 3082 3089
3091 3085 3078 3070 3062 3052 3042 3032 3023 3016 3009 3002 2996 2989 2984 2979 2974 2970 2966 2963 2960 2958 2956 2955 2954 2954 2955 2959 2955 2951 2948 2961 2973 2985 2995 3006 3017 3029 3038 3041 3047 3053 3064 3071 3075 3081 3086
3093 3085 3077 3069 3060 3051 3041 3031 3023 3015 3009 3003 2997 2991 2986 2980 2975 2970 2966 2962 2959 2957 2955 2955 2954 2955 2956 2958 2955 2952 2944 2953 2966 2978 2992 3004 3014 3027 3034 3041 3046 3052 3061 3067 3072 3078 3082
3092 3084 3076 3069 3059 3050 3040 3030 3022 3015 3009 3003 2998 2993 2987 2982 2976 2970 2966 2962 2959 2956 2955 2953 2953 2953 2956 2954 2952 2950 2947 2953 2964 2977 2988 3004 3014 3023 3030 3034 3043 3051 3061 3065 3068 3074 3078
3091 3083 3076 3068 3059 3049 3040 3029 3021 3015 3009 3004 2999 2993 2988 2983 2977 2971 2967 2963 2959 2957 2955 2955 2955 2954 2954 2953 2952 2952 2950 2951 2965 2979 2988 2999 3009 3017 3023 3032 3041 3048 3051 3059 3067 3070 3076
3091 3083 3075 3068 3059 3050 3040 3030 3021 3015 3009 3003 2998 2994 2988 2983 2978 2973 2967 2964 2961 2959 2957 2956 2956 2958 2957 2955 2953 2946 2948 2952 2967 2980 2986 2993 3004 3014 3021 3028 3026 3034 3047 3056 3060 3065 3071
3090 3084 3076 3069 3060 3051 3041 3031 3022 3015 3009 3003 2998 2994 2989 2983 2977 2973 2969 2965 2965 2964 2960 2959 2958 2956 2956 2948 2950 2951 2953 2956 2964 2974 2978 2990 3001 3004 3011 3023 3036 3043 3051 3055 3062 3064 3069
3091 3084 3077 3068 3060 3051 3042 3032 3023 3016 3010 3005 2999 2994 2990 2984 2978 2973 2969 2966 2964 2965 2963 2961 2960 2957 2956 2957 2956 2953 2953 2954 2965 2971 2980 2990 2994 3008 3020 3028 3034 3041 3047 3053 3060 3061 3068
3091 3085 3078 3070 3062 3052 3043 3034 3025 3017 3011 3007 3001 2996 2991 2985 2980 2975 2971 2967 2965 2964 2964 2964 2961 2961 2959 2956 2954 2953 2956 2959 2959 2972 2979 2985 2997 3011 3019 3024 3030 3038 3043 3051 3056 3059 3067
3092 3085 3078 3071 3063 3053 3045 3036 3027 3019 3013 3008 3002 2997 2992 2987 2982 2976 2972 2969 2966 2966 2966 2969 2962 2960 2960 2956 2957 2956 2956 2958 2964 2973 2984 2995 3003 3009 3017 3022 3031 3037 3045 3051 3055 3059 3061
3093 3086 3079 3071 3063 3056 3047 3037 3028 3021 3013 3008 3004 2999 2993 2986 2982 2976 2974 2969 2967 2967 2967 2972 2966 2960 2960 2960 2961 2959 2959 2963 2966 2974 2982 2986 2997 3004 3013 3018 3031 3037 3044 3049 3055 3059 3063
3093 3087 3081 3074 3066 3058 3050 3040 3031 3022 3014 3009 3005 3001 2995 2991 2984 2978 2974 2971 2969 2971 2971 2973 2970 2964 2957 2956 2958 2958 2959 2963 2966 2968 2979 2989 3000 3007 3015 3023 3031 3036 3043 3050 3056 3061 3059
3096 3089 3082 3076 3068 3060 3052 3043 3034 3025 3016 3010 3005 3001 2996 2992 2988 2981 2976 2974 2974 2976 2980 2976 2971 2967 2964 2962 2964 2964 2966 2967 2966 2972 2981 2991 2999 3007 3015 3021 3029 3037 3040 3050 3059 3058 3049
3097 3091 3084 3077 3070 3063 3054 3046 3037 3029 3020 3012 3005 3002 2999 2995 2991 2985 2980 2977 2977 2985 2981 2974 2972 2971 2967 2963 2962 2963 2966 2970 2971 2975 2980 2986 2999 3002 3009 3013 3018 3028 3031 3032 3039 3042 3046
3099 3093 3086 3079 3072 3064 3057 3049 3040 3032 3023 3015 3008 3004 3002 2998 2994 2990 2985 2978 2989 2987 2984 2977 2971 2969 2971 2971 2970 2971 2976 2974 2972 2973 2980 2986 2994 3002 3006 3015 3022 3028 3032 3036 3038 3042 3044
3101 3094 3088 3081 3074 3067 3060 3053 3044 3036 3027 3020 3013 3007 3003 3000 2997 2993 2989 2988 2993 2989 2986 2984 2980 2978 2978 2974 2974 2973 2972 2973 2978 2979 2980 2985 2994 3002 3007 3018 3022 3023 3029 3035 3037 3041 3039
3102 3095 3089 3082 3076 3069 3062 3055 3047 3040 3031 3024 3018 3010 3005 3003 3000 2998 2991 2994 2994 2992 2989 2987 2987 2983 2981 2980 2979 2979 2983 2985 2982 2981 2983 2985 2991 2999 3007 3007 3010 3019 3023 3031 3036 3037 3036
3104 3097 3091 3084 3077 3070 3064 3057 3051 3043 3036 3030 3023 3014 3010 3007 3004 2998 2998 2997 2997 2994 2992 2989 2988 2985 2981 2980 2981 2980 2980 2981 2980 2981 2984 2987 2990 2995 2999 3008 3015 3019 3022 3027 3030 3033 3037
3105 3099 3093 3085 3079 3072 3065 3059 3052 3046 3040 3033 3025 3020 3016 3012 3002 3003 3002 3000 3000 2997 2993 2991 2988 2986 2987 2985 2985 2985 2985 2983 2982 2982 2985 2988 2990 2996 3005 3010 3009 3010 3015 3021 3028 3033 3033
3107 3101 3095 3089 3081 3074 3067 3060 3054 3048 3042 3035 3027 3022 3018 3012 3009 3007 3005 3004 3000 2998 2996 2993 2991 2988 2985 2985 2985 2987 2986 2985 2985 2986 2988 2988 2988 2991 2991 2990 2999 3006 3011 3017 3023 3026 3030
3108 3103 3097 3092 3085 3077 3071 3064 3056 3050 3044 3039 3031 3026 3022 3016 3012 3010 3008 3006 3004 3001 2999 2997 2996 2991 2988 2985 2984 2984 2980 2982 2984 2987 2988 2989 2989 2990 2991 2995 3000 3004 3008 3014 3018 3023 3025
3110 3104 3098 3093 3087 3080 3074 3066 3058 3053 3047 3043 3034 3030 3025 3020 3016 3013 3011 3008 3005 3002 2999 2997 2996 2993 2990 2988 2988 2984 2985 2984 2982 2986 2985 2988 2990 2990 2992 2994 2998 3003 3008 3011 3017 3021 3025
3111 3105 3099 3093 3087 3082 3075 3069 3062 3056 3049 3043 3039 3034 3030 3026 3020 3015 3012 3008 3005 3003 3002 2998 2996 2994 2991 2990 2986 2983 2982 2980 2981 2983 2984 2989 2990 2991 2993 2995 2998 3003 3003 3005 3013 3012 3017
3111 3105 3099 3094 3088 3082 3076 3070 3064 3057 3051 3046 3041 3037 3033 3029 3025 3021 3016 3012 3008 3005 3002 3000 2997 2995 2994 2991 2991 2990 2988 2988 2985 2984 2988 2990 2990 2990 2992 2995 2997 2997 2998 3001 3004 3007 3010
3110 3104 3099 3094 3088 3083 3077 3072 3066 3059 3054 3049 3044 3040 3035 3032 3029 3025 3021 3017 3012 3007 3004 3001 2997 2995 2993 2992 2992 2992 2993 2992 2993 2993 2991 2989 2988 2989 2991 2992 2996 2997 2996 2998 2998 3001 3003
3109 3103 3098 3093 3088 3083 3078 3073 3067 3061 3056 3050 3046 3042 3038 3034 3031 3026 3023 3019 3015 3011 3006 3003 2999 2997 2994 2992 2992 2993 2994 2994 2996 2994 2992 2991 2989 2991 2991 2991 2987 2996 2993 2992 2994 2997 2999
3107 3102 3097 3092 3088 3082 3077 3072 3067 3062 3056 3052 3046 3042 3038 3035 3031 3027 3022 3020 3017 3013 3009 3005 3002 2998 2996 2994 2993 2994 2996 2994 2994 2992 2989 2987 2989 2992 2990 2990 2992 2993 2991 2991 2996 2997 2993
3105 3100 3095 3091 3086 3081 3075 3070 3066 3061 3056 3052 3047 3042 3038 3034 3032 3028 3024 3020 3016 3013 3010 3008 3004 3000 2997 2995 2995 2995 2996 2994 2994 2993 2992 2992 2992 2993 2990 2988 2990 2990 2991 2995 2993 2990 2990
3102 3097 3093 3088 3085 3080 3074 3069 3064 3059 3055 3051 3047 3042 3037 3033 3031 3027 3023 3021 3018 3015 3012 3007 3006 3002 2999 2997 2997 2995 2995 2994 2994 2995 2992 2993 2992 2990 2991 2990 2988 2988 2989 2987 2987 2986 2985